Terminal Aerodrome Forecast
Issued by NWS Raleigh/Durham, NC

Current Version | Previous Version | Text Only | Print | Product List | Glossary On
Versions: 1 2 3 4 5 6 7 8 9 10 11 12 13 14 15
000 FTUS42 KRAH 312320 TAFFAY TAF KFAY 312320Z 0100/0124 VRB05KT P6SM BKN050 FM011300 VRB06KT 3SM -RA OVC009 FM011800 03015G25KT P6SM OVC025 FM012100 36020G30KT P6SM SCT035=

USA.gov is the U.S. government's official web portal to all federal, state and local government web resources and services.